Погода в Шурабаде

Узбекистан     39°43′58″N   64°30′27″E
темп.,
°C
ветер,
м/с
пор.,
м/с
влажн.,
%
обл.,
%
осадки,
мм/ч
давл.,
гПа
погр.,
м
26 января, вт
вт2623:000ссв467328 0.0 1029111
02:000с34760 0.0 102979
05:00+1св23750 0.0 102835
08:000всв12790 0.0 102924
11:00+3ююв23680 0.0 1029236
14:00+6ююв23540 0.0 1027497
17:00+6в12540 0.0 1026107
20:00+3всв12600 0.0 102722
27 января, ср
ср2723:00+2в12650 0.0 102722
02:00+2св12670 0.0 102722
05:00+2ссв34660 0.0 102727
08:00+2ссв34650 0.0 102845
11:00+6с23500 0.0 1028145
14:00+9с22370 0.0 1026312
17:00+10ссв23370 0.0 1026107
20:00+6ссв45490 0.0 102782
28 января, чт
чт2823:00+5ссв34510 0.0 102645
02:00+4св23510 0.0 102626
05:00+3юв34540 0.0 102540
08:00+2вюв23570 0.0 102623
11:00+6в23420 0.0 1025205
14:00+10в23310 0.0 1024352
17:00+11всв34300 0.0 1022279
20:00+8ссв34350 0.0 102341
29 января, пт
пт2923:00+7в33390 0.0 102325
02:00+6вюв34410 0.0 102234
05:00+5вюв45390 0.0 102255
08:00+4вюв45380 0.0 102265
11:00+9вюв58260 0.0 1021250
14:00+15вюв57170 0.0 1019449
17:00+15вюв46202 0.0 1018195
20:00+11вюв46260 0.0 101887
30 января, сб
сб3023:00+10вюв5102510 0.0 1018167
02:00+8юв5103371 0.0 1017148
05:00+7вюв573060 0.0 1015117
08:00+7юв4628100 0.0 101489
11:00+11юв5921100 0.0 1013375
14:00+17ююв81313100 0.0 1010895
17:00+16ююв3617100 0.0 1008156
20:00+14ююв3422100 0.0 100854